www.pogodaiklimat.ru

Погода и климат >> Архив погоды >> Индонезия >> Sabu


ПОГОДА в Sabu

  • Прогноз погоды в Sabu
  • Монитор погоды в Sabu
  • Климат города

АРХИВ ПОГОДЫ в Sabu

Время (UTC), дата Ветер
(напр.,м/с)
 
Видим.   Явления Облачность Т
(С)
Тd
(С)
f
(%)
Тe
(С)
Тes
(С)
Комфортность P
(гПа)
Po
(гПа)
Тmin
(С)
Tmax
(С)
R
(мм)
R24
(мм)
S
(см)
00 11.11 З 3 14 км 8/4 450 м
[Cu hum Ac trans Ci fib]
+30.1 +27.2 85 +48 +50 опасность
перегрева
1010.5 1008.2 +28.2
03 11.11 Ю 3 14 км 6/4 450 м
[Cu hum Ac trans Ci fib]
+33.0 +24.2 60 +45 +54 опасность
перегрева
1009.6 1007.4
06 11.11 ЮЗ 3 14 км 6/5 450 м
[Cu hum As op Ci fib]
+32.8 +25.0 64 +47 +53 опасность
перегрева
1007.8 1005.6
09 11.11 ЮЗ 3 14 км 5/4 450 м
[Cu hum Ci fib]
+31.0 +25.1 71 +45 +45 опасность
перегрева
1008.0 1005.7
12 11.11 Ю 2 6000 м 5/3 450 м
[Cu hum Ci fib]
+29.4 +25.1 78 +43 +43 опасность
перегрева
1010.3 1008.0 +34.0
15 11.11 штиль 0 6000 м 3/1 450 м
[Cu hum Ci fib]
+28.8 +25.6 83 +43 +43 опасность
перегрева
1010.4 1008.2
18 11.11 штиль 0 6000 м 3/1 480 м
[Cu hum Ci fib]
+28.4 +26.0 87 +43 +43 опасность
перегрева
1009.2 1007.0
00 12.11 ЮВ 3 14 км 4/4 480 м
[Cu hum Ci fib]
+30.7 +25.5 74 +45 +48 опасность
перегрева
1011.4 1009.2 +27.0
03 12.11 Ю 6 14 км 5/5 480 м
[Cu med, cong Ci fib]
+33.5 +25.2 62 +48 +52 опасность
перегрева
1010.2 1008.0
06 12.11 штиль 0 14 км 5/5 420 м
[Cu med, cong Ci fib]
+31.6 +25.7 71 +47 +57 опасность
перегрева
1007.8 1005.6
09 12.11 Ю 5 14 км 5/4 450 м
[Cu hum Ci fib]
+31.0 +25.1 71 +45 +45 опасность
перегрева
1007.4 1005.2
12 12.11 Ю 3 6000 м 5/4 450 м
[Cu med, cong Ci fib]
+29.0 +25.2 80 +42 +42 опасность
перегрева
1009.1 1006.9 +33.8
15 12.11 Ю 1 6000 м 4/3 480 м
[Cu med, cong Ci fib]
+28.4 +25.4 84 +42 +42 опасность
перегрева
1010.1 1007.9
18 12.11 Ю 2 6000 м 4/3 480 м
[Cu hum Ci fib]
+27.8 +25.1 85 +40 +40 очень
душно
1008.7 1006.5
00 13.11 Ю 4 14 км 3/3 480 м
[Cu hum Ci fib]
+31.0 +25.4 72 +45 +48 опасность
перегрева
1010.3 1008.1 +27.2
03 13.11 З 2 14 км 4/4 480 м
[Cu hum Ci fib]
+26.8 +22 +34 комфорт 1009.3 1007.1
06 13.11 СЗ 3 14 км 4/4 480 м
[Cu hum Ci fib]
+33.4 +26.0 65 +49 +57 опасность
перегрева
1007.5 1005.3
09 13.11 Ю 3 14 км 5/5 480 м
[Cu hum Ci fib]
+31.8 +25.4 69 +46 +47 опасность
перегрева
1006.9 1004.7
12 13.11 Ю 4 6000 м 5/5 480 м
[Cu med, cong Ci fib]
+29.6 +25.4 78 +43 +43 опасность
перегрева
1009.5 1007.3 +34.2
15 13.11 Ю 2 6000 м 6/5 480 м
[Cu hum Ci fib]
+29.0 +25.8 83 +43 +43 опасность
перегрева
1009.8 1007.6
18 13.11 Ю 3 6000 м зарница 4/4 450 м
[Cb cap Ci fib]
+28.4 +25.4 84 +42 +42 опасность
перегрева
1008.4 1006.1
00 14.11 Ю 3 14 км 3/3 480 м
[Cu hum Ci fib]
+31.2 +25.2 70 +45 +49 опасность
перегрева
1010.6 1008.4 +28.0
03 14.11 З 2 14 км 5/5 480 м
[Cu hum Ci fib]
+32.4 +26.6 72 +50 +60 опасность
перегрева
1010.5 1008.3
06 14.11 СЗ 4 14 км {дождь} 5/5 450 м
[Cu med, cong Ci fib]
+31.8 +26.5 74 +49 +55 опасность
перегрева
1008.9 1006.7 0.0
09 14.11 Ю 5 14 км 3/3 480 м
[Cu med, cong Ci fib]
+30.8 +25.2 72 +45 +45 опасность
перегрева
1008.6 1006.4
12 14.11 Ю 4 6000 м 1/1 500 м
[Cu hum Ac trans Ci fib]
+29.2 +25.7 81 +43 +43 опасность
перегрева
1010.4 1008.2 +33.2
15 14.11 Ю 2 6000 м 1/1 500 м
[Cu hum Ci fib]
+28.7 +25.9 85 +43 +43 опасность
перегрева
1011.0 1008.8
18 14.11 штиль 0 6000 м 1/1 500 м
[Cu hum Ci fib]
+27.5 +25.5 89 +40 +40 очень
душно
1009.8 1007.6
00 15.11 Ю 3 14 км 4/4 480 м
[Cu hum Ci fib]
+31.0 +25.9 74 +46 +50 опасность
перегрева
1012.4 1010.2 +26.4 0.0
03 15.11 СЗ 3 14 км 6/6 450 м
[Cu hum Ci fib]
+33.1 +27.2 71 +51 +58 опасность
перегрева
1011.9 1009.7
06 15.11 С 2 14 км 6/5 450 м
[Cu med, cong Ci fib]
+32.4 +25.5 67 +47 +55 опасность
перегрева
1010.2 1008.0
09 15.11 ЮВ 2 10 км в посл. час гроза {дождь} 6/1 480 м
[Cu hum Ac trans Ci ing]
+27.4 +25.7 90 +40 +42 очень
душно
1009.2 1007.0 2
12 15.11 штиль 0 6000 м {гроза, дождь} 5/1 480 м
[Cu hum Ac trans Ci sp]
+27.5 +25.6 89 +40 +40 очень
душно
1011.1 1008.9 +34.2 2
15 15.11 штиль 0 6000 м 5/1 480 м
[Cu hum Ac trans Ci sp]
+26.4 +25.0 92 +38 +38 очень
душно
1011.9 1009.6
18 15.11 ЮВ 1 6000 м 5/1 480 м
[Cu hum Ac trans Ci sp]
+25.6 +24.8 95 +36 +36 очень
душно
1010.5 1008.3
00 16.11 СЗ 2 14 км 4/4 480 м
[Cu hum Ci fib]
+29.8 +26.6 83 +46 +50 опасность
перегрева
1012.1 1009.9 +25.3 2
03 16.11 Ю 2 14 км 5/5 480 м
[Cu hum Ci fib]
+33.3 +25.9 65 +49 +60 опасность
перегрева
1011.1 1008.9
06 16.11 С 3 12 км 5/5 420 м
[Cu med, cong Ci fib]
+32.2 +27.1 75 +51 +57 опасность
перегрева
1009.4 1007.2
09 16.11 Ю 3 12 км 4/4 420 м
[Cu hum Ci fib]
+30.9 +25.7 74 +46 +47 опасность
перегрева
1009.0 1006.8
12 16.11 штиль 0 6000 м 3/3 420 м
[Cu hum Ci fib]
+29.2 +26.1 83 +44 +44 опасность
перегрева
1010.9 1008.7 +33.6
15 16.11 штиль 0 6000 м 3/3 420 м
[Cu hum Ci fib]
+27.6 +25.6 89 +41 +41 опасность
перегрева
1011.2 1009.0
18 16.11 штиль 0 6000 м 3/3 420 м
[Cu hum Ci fib]
+27.2 +25.3 89 +39 +39 очень
душно
1010.0 1007.8
00 17.11 З 1 14 км 4/3 450 м
[Cu hum Ci fib]
+29.9 +26.9 84 +47 +52 опасность
перегрева
1012.0 1009.8 +26.0
03 17.11 З 4 10 км осадки на расстоянии 5/4 420 м
[Cu med, cong Ci fib]
+32.1 +26.7 73 +49 +58 опасность
перегрева
1011.1 1008.9
06 17.11 СЗ 3 12 км 5/4 420 м
[Cu med, cong Ci fib]
+32.3 +27.1 74 +50 +58 опасность
перегрева
1008.9 1006.7
09 17.11 З 3 12 км 5/4 480 м
[Cu med, cong Ci fib]
+31.6 +26.4 74 +48 +49 опасность
перегрева
1008.5 1006.3
12 17.11 штиль 0 6000 м 4/1 480 м
[Cu hum Ci fib]
+29.2 +25.7 81 +43 +43 опасность
перегрева
1010.5 1008.3 +33.9
15 17.11 штиль 0 6000 м 4/1 480 м
[Cu hum Ci fib]
+27.6 +25.2 87 +40 +40 очень
душно
1011.0 1008.8
18 17.11 штиль 0 6000 м 3/1 480 м
[Cu hum Ci fib]
+26.4 +24.8 91 +38 +38 очень
душно
1009.8 1007.6

 

Местоположение метеостанции Sabu (Индонезия): широта -10.50 долгота 121.83 высота над уровнем моря 26 м.

В архиве по умолчанию представлена погода в Sabu за последнюю неделю. Архивные данные за месяц целиком и за предыдущие месяцы, начиная с января 2011 года, Вы можете получить, выбрав интересующий диапазон дат из раскрывающегося списка и нажав кнопку "Ввод!".


*Определитесь, кто Вы:
робот инопланетянин человек

Внимание! Время в таблицах - всемирное. Для получения местного времени необходимо прибавить поправку, которая в Sabu равна 8 ч.

Смотрите также архив погоды в соседних городах и на ближайших метеорологических станциях:

Погода в Rote (Индонезия) (138 км)
Погода в Umbu Mehang Kunda Airport (Индонезия) (188 км)
Погода в Kupang (Индонезия) (204 км)
Погода в Maumere (Индонезия) (213 км)
Погода в Ruteng (Индонезия) (257 км)
Погода в Larantuka (Индонезия) (278 км)
Погода в Alor (Индонезия) (393 км)
Погода в Bima (Индонезия) (406 км)
Погода в Browse Island (Западная Австралия, Австралия) (443 км)
Погода в Sumbawa Besar (Индонезия) (534 км)

Пояснения к столбцам:

Ветер - указаны скорость ветра в м/с - средняя за 10 мин, порывы в срок и между сроками (в фигурных скобках) и направление, откуда дует ветер: С - северный, СВ - северо-восточный, В - восточный, ЮВ - юго-восточный, Ю - южный, ЮЗ - юго-западный, З - западный, СЗ - северо-западный.
Видимость - горизонтальная дальность видимости в метрах или километрах. При видимости от 1 до 10 км при отсутствии осадков обычно наблюдается дымка, при ухудшении видимости до 1 км и менее - туман. В сухую погоду видимость может ухудшаться дымом, пылью или мглою.
Явления - указаны атмосферные явления, наблюдавшиеся в срок или в последний час перед сроком; фигурными скобками обозначены явления, наблюдавшиеся между сроками (за 1-3 часа до срока); квадратными скобками обозначены град или гололедные отложения с указанием их диаметра в мм.
Облачность - указаны через наклонную черту общая и нижняя облачность в баллах и высота нижней границы облаков в метрах; квадратными скобками обозначены формы облаков: Ci - перистые, Cs - перисто-слоистые, Cc - перисто-кучевые, Ac - высококучевые, As - высокослоистые, Sc - слоисто-кучевые, Ns - слоисто-дождевые, Cu - кучевые, Cb - кучево-дождевые. Подробнее классификацию облаков см. в Атласе облаков (PDF).
T - Температура воздуха - температура, измеренная на высоте 2 м над землей.
Td - Температура точки росы - температура, при понижении до которой содержащийся в воздухе водяной пар достигнет насыщения.
f - Относительная влажность воздуха - влажноcть воздуха, измеренная на высоте 2 м над землей.
Te - Эффективная температура - температура, которую ощущает одетый по сезону человек в тени. Характеристика душности погоды. При расчете учитывается влияние влажности воздуха и скорости ветра на теплоощущения человека.
Tes - Эффективная температура на солнце - температура, которую ощущает человек, с поправкой на солнечный нагрев. Характеристика знойности погоды. Зависит от высоты солнца над горизонтом, облачности и скорости ветра. Ночью, в пасмурную погоду, а также при ветре 12 м/с и более поправка равна нулю.
P - Атмосферное давление - приведенное к уровню моря атмосферное давление.
Po - Атмосферное давление - измеренное на уровне метеостанции атмосферное давление.
Tmin - Минимальная температура - минимум температуры воздуха на высоте 2 м над землей.
Tmax - Максимальная температура - максимум температуры воздуха на высоте 2 м над землей.
R - Количество осадков - Количество выпавших осадков за период времени, мм. При наведении курсора мыши на число - период времени, за который выпало указанное количество осадков.
R24 - Количество осадков - Количество выпавших осадков за 24 часа, мм.
S - Снежный покров - Высота снежного покрова, см. При наведении курсора мыши на число - состояние снежного покрова и степень покрытия местности в баллах.